Voltar ao catálogo

SSA

AtivoMilitarLEO
NORAD 13844·PAYLOAD·🇺🇸 United States

Lançado Feb 9, 1983 de Vandenberg Space Force Base

Loading…

Próximas Passagens (próximas 24 horas)

TLE

AtualizadoSource: Space-Track

Época: Sep 14, 2026, 09:12 UTC

1 13844U 83008E   26257.38351767  .00001531  00000-0  24063-3 0  9999
2 13844  63.3114 142.8267 0704009 136.4675 229.4206 13.78088111371141

Acompanhe SSA em tempo real com AllMySat

Download on the App Store